Stations météo

Publicité
Aurillac, France (7549): Température de l'air & dewpoint: 20.11.2020 00:00:00 - 26.11.2020 00:00:00 (CET)Aurillac, France (7549): Température de l'air 5cm: 20.11.2020 00:00:00 - 26.11.2020 00:00:00 (CET)Aurillac, France (7549): Température de l'air -20cm & Température de l'air -100cm: 20.11.2020 00:00:00 - 26.11.2020 00:00:00 (CET)Aurillac, France (7549): Vitesse du vent & gusts: 20.11.2020 00:00:00 - 26.11.2020 00:00:00 (CET)Aurillac, France (7549): Direction du vent: 20.11.2020 00:00:00 - 26.11.2020 00:00:00 (CET)Aurillac, France (7549): reduced air pressure: 20.11.2020 00:00:00 - 26.11.2020 00:00:00 (CET)Aurillac, France (7549): visibility: 20.11.2020 00:00:00 - 26.11.2020 00:00:00 (CET)Aurillac, France (7549): Ensoleillement: 20.11.2020 00:00:00 - 26.11.2020 00:00:00 (CET)Aurillac, France (7549): Quantités de précipitations: 20.11.2020 00:00:00 - 26.11.2020 00:00:00 (CET)
Date & Time tt [°C] td [°C] tt 5cm [°C] tt -20cm [°C] tt -100cm [°C] ff [km/h] ff [knt] fx [km/h] fx [knt] dd ppp [hPa] vv [km] sd [min] rr [mm]
26.11.2020 00:00:00 - - - - - - - - - - - - - -
25.11.2020 23:00:00 9,9 6,2 8,4 7,4 10,5 26 14 53 29 ESE 1017,4 60 0 0,0
25.11.2020 22:00:00 10,0 6,3 8,6 7,3 10,5 28 15 51 28 ESE 1017,1 60 0 0,0
25.11.2020 21:00:00 10,0 6,3 8,1 7,3 10,5 24 13 42 23 ESE 1017,0 60 0 0,0
25.11.2020 20:00:00 9,8 6,0 8,0 7,2 10,5 24 13 42 23 ESE 1016,9 60 0 0,0
25.11.2020 19:00:00 9,6 5,8 7,9 7,2 10,5 23 12 41 22 ESE 1016,6 60 0 0,0
25.11.2020 18:00:00 9,8 5,8 8,2 7,1 10,5 18 10 43 23 ESE 1016,6 60 0 0,0
25.11.2020 17:00:00 10,2 6,0 8,8 7,0 10,5 18 10 36 19 SE 1016,0 60 5 0,0
25.11.2020 16:00:00 11,0 5,9 10,5 6,9 10,5 14 8 48 26 SE 1016,0 58 21 0,0
25.11.2020 15:00:00 11,7 6,2 11,7 6,8 10,5 19 10 46 25 SE 1015,9 60 45 0,0
25.11.2020 14:00:00 11,4 6,3 11,6 6,8 10,5 24 13 54 29 SE 1016,2 46 26 0,0
25.11.2020 13:00:00 11,0 6,7 11,4 6,8 10,6 31 17 49 27 SE 1016,8 36 1 0,0
25.11.2020 12:00:00 11,2 6,3 10,8 6,7 10,5 22 12 49 26 SE 1017,0 46 23 0,0
25.11.2020 11:00:00 - - - - - - - - - - - - - -
25.11.2020 10:00:00 - - - - - - - - - - - - - -
25.11.2020 09:00:00 9,2 5,6 6,2 6,7 10,6 - - - - - 1017,6 59 12 0,0
25.11.2020 08:00:00 8,6 5,2 6,1 6,7 10,6 - - - - - 1017,3 60 0 0,0
25.11.2020 07:00:00 8,2 5,3 5,8 6,7 10,6 14 8 29 15 E 1017,5 55 0 0,0
25.11.2020 06:00:00 8,3 5,4 6,1 6,7 10,6 18 10 36 19 ESE 1017,5 51 0 0,0
25.11.2020 05:00:00 8,0 5,1 6,2 6,7 10,6 16 9 30 16 ESE 1017,6 49 0 0,0
25.11.2020 04:00:00 7,6 4,5 4,7 6,7 10,6 12 6 22 12 E 1018,0 51 0 0,0
25.11.2020 03:00:00 6,5 3,3 3,2 6,7 10,6 16 9 22 12 E 1018,7 47 0 0,0
25.11.2020 02:00:00 5,8 2,8 2,6 6,7 10,7 12 7 21 11 E 1019,3 43 0 0,0
25.11.2020 01:00:00 5,7 2,5 3,0 6,7 10,6 14 8 21 11 E 1020,1 40 0 0,0
25.11.2020 00:00:00 5,4 2,4 2,9 6,7 10,7 14 8 22 12 E 1020,6 36 0 0,0
24.11.2020 23:00:00 5,0 2,2 3,2 6,7 10,7 15 8 24 13 E 1021,1 35 0 0,0
24.11.2020 22:00:00 5,3 2,8 3,3 6,6 10,7 13 7 24 13 E 1021,4 36 0 0,0
24.11.2020 21:00:00 6,1 3,3 3,9 6,6 10,7 14 8 30 16 ESE 1021,4 39 0 0,0
24.11.2020 20:00:00 6,7 3,3 4,4 6,5 10,7 17 9 31 17 ESE 1021,3 41 0 0,0
24.11.2020 19:00:00 8,1 3,4 4,4 6,5 10,7 16 9 29 15 SE 1020,8 50 0 0,0
24.11.2020 18:00:00 9,7 2,8 3,7 6,4 10,7 7 4 15 8 SSE 1019,7 60 0 0,0
24.11.2020 17:00:00 10,9 2,5 7,1 6,3 10,7 6 4 18 10 S 1019,0 53 1 0,0
24.11.2020 16:00:00 12,6 3,8 10,5 6,2 10,8 10 6 22 12 SE 1018,1 60 49 0,0
24.11.2020 15:00:00 14,6 3,1 13,3 6,1 10,7 11 6 22 12 SE 1018,1 60 60 0,0
24.11.2020 14:00:00 14,8 2,7 16,2 6,1 10,8 12 7 27 15 SE 1018,7 55 57 0,0
24.11.2020 13:00:00 14,2 2,4 16,0 6,1 10,8 14 7 29 16 SSE 1019,7 60 60 0,0
24.11.2020 12:00:00 13,4 2,3 14,2 6,2 10,8 13 7 26 14 SE 1020,9 60 60 0,0
24.11.2020 11:00:00 11,6 2,1 8,6 6,2 10,8 12 6 19 10 ESE 1022,4 20 60 0,0
24.11.2020 10:00:00 7,4 1,2 1,6 6,2 10,8 11 6 19 10 E 1023,7 60 60 0,0
24.11.2020 09:00:00 2,7 0,4 -3,0 6,3 10,8 11 6 15 8 E 1025,1 51 35 0,0
24.11.2020 08:00:00 0,2 -0,9 -4,3 6,4 10,8 11 6 14 8 E 1025,9 58 0 0,0
24.11.2020 07:00:00 -0,8 -1,4 -4,6 6,4 10,8 9 5 16 9 E 1026,3 52 0 0,0
24.11.2020 06:00:00 -0,8 -1,4 -4,7 6,5 10,8 6 4 10 5 ESE 1026,7 47 0 0,0
24.11.2020 05:00:00 -0,6 -1,2 -4,3 6,5 10,9 5 3 10 5 ESE 1026,9 40 0 0,0
24.11.2020 04:00:00 -0,8 -1,4 -4,0 6,5 10,8 6 3 12 6 ESE 1027,4 15 0 0,0
24.11.2020 03:00:00 0,5 0,1 -4,1 6,6 10,9 7 4 11 6 ESE 1027,8 18 0 0,0
24.11.2020 02:00:00 -0,4 -1,1 -3,4 6,6 10,9 6 4 12 6 ESE 1028,6 17 0 0,0
24.11.2020 01:00:00 -0,2 -0,9 -3,7 6,7 10,9 8 4 11 6 ESE 1029,3 19 0 0,0
24.11.2020 00:00:00 0,3 -0,4 -3,7 6,7 10,9 6 4 8 5 SE 1029,5 17 0 0,0
23.11.2020 23:00:00 0,5 -0,4 -2,9 6,7 10,9 6 4 11 6 ESE 1029,8 13 0 0,0
23.11.2020 22:00:00 1,8 0,9 -2,4 6,7 10,9 6 4 8 5 E 1029,6 15 0 0,0
23.11.2020 21:00:00 2,4 0,9 -1,9 6,7 11,0 5 3 7 4 E 1029,4 18 0 0,0
23.11.2020 20:00:00 3,1 0,7 -1,8 6,6 10,9 6 3 8 5 ESE 1029,2 20 0 0,0
23.11.2020 19:00:00 5,1 1,8 -0,5 6,6 11,0 3 2 9 5 E 1028,7 30 0 0,0
23.11.2020 18:00:00 8,2 2,2 1,8 6,6 11,0 6 3 11 6 W 1027,7 18 0 0,0
23.11.2020 17:00:00 11,0 1,8 4,5 6,5 11,0 3 1 7 4 SSW 1026,8 45 40 0,0
23.11.2020 16:00:00 12,6 2,2 7,9 6,5 11,0 0 0 5 3 N 1026,2 17 60 0,0
23.11.2020 15:00:00 13,4 2,0 11,3 6,5 11,0 0 0 9 5 N 1026,2 19 60 0,0
23.11.2020 14:00:00 11,4 1,6 14,0 6,5 11,0 4 2 10 6 N 1027,2 46 60 0,0
23.11.2020 13:00:00 10,2 -0,1 14,1 6,5 11,0 5 3 13 7 W 1028,0 9 60 0,0
23.11.2020 12:00:00 9,1 -0,3 12,3 6,5 11,0 4 2 10 5 WNW 1028,9 20 60 0,0
23.11.2020 11:00:00 7,5 -1,0 8,0 6,5 11,0 3 1 9 5 SSE 1029,8 15 60 0,0
23.11.2020 10:00:00 4,5 -0,9 0,5 6,6 11,0 2 1 9 5 SE 1030,5 20 60 0,0
23.11.2020 09:00:00 0,1 -2,3 -5,2 6,7 11,1 6 4 10 5 E 1031,6 40 37 0,0
23.11.2020 08:00:00 -2,2 -3,9 -5,2 6,7 11,1 7 4 11 6 ESE 1032,1 54 0 0,0
23.11.2020 07:00:00 -1,3 -3,5 -5,2 6,8 11,1 5 3 7 4 SE 1031,7 60 0 0,0
23.11.2020 06:00:00 -1,1 -3,5 -4,6 6,8 11,1 7 4 9 5 ESE 1031,2 55 0 0,0
23.11.2020 05:00:00 -1,0 -3,4 -4,3 6,9 11,1 6 4 11 6 ESE 1031,4 46 0 0,0
23.11.2020 04:00:00 -0,7 -2,9 -4,2 6,9 11,1 5 3 11 6 ESE 1031,2 43 0 0,0
23.11.2020 03:00:00 -1,0 -2,9 -4,1 7,0 11,2 8 5 12 6 ESE 1031,5 36 0 0,0
23.11.2020 02:00:00 -0,7 -2,9 -3,7 7,0 11,1 8 4 12 6 E 1031,4 27 0 0,0
23.11.2020 01:00:00 -0,2 -2,4 -4,0 7,0 11,1 6 4 11 6 ESE 1031,3 22 0 0,0
23.11.2020 00:00:00 0,9 -2,7 -3,6 7,0 11,2 9 5 11 6 ESE 1030,6 40 0 0,0
22.11.2020 23:00:00 0,1 -2,3 -3,4 7,1 11,2 4 2 11 6 SE 1031,0 22 0 0,0
22.11.2020 22:00:00 0,4 -2,3 -2,5 7,0 11,2 9 5 11 6 E 1030,6 35 0 0,0
22.11.2020 21:00:00 3,1 -1,5 -1,6 7,0 11,2 4 2 16 9 E 1029,5 35 0 0,0
22.11.2020 20:00:00 3,4 -1,0 -1,6 7,0 11,2 14 8 18 10 E 1029,0 34 0 0,0
22.11.2020 19:00:00 5,2 -1,7 -0,5 7,0 11,2 4 2 16 9 WSW 1028,8 26 0 0,0
22.11.2020 18:00:00 8,8 -1,3 1,5 7,0 11,3 9 5 17 9 NW 1027,5 59 0 0,0
22.11.2020 17:00:00 11,3 -1,8 6,6 6,9 11,2 6 3 9 5 WSW 1026,0 57 50 0,0
22.11.2020 16:00:00 14,3 0,5 10,6 6,8 11,3 5 3 9 5 WNW 1025,0 6 60 0,0
22.11.2020 15:00:00 13,4 -0,3 11,8 6,8 11,3 5 3 14 7 WNW 1025,2 55 60 0,0
22.11.2020 14:00:00 12,0 0,4 15,6 6,8 11,3 9 5 16 9 NW 1026,2 60 60 0,0
22.11.2020 13:00:00 12,8 -2,3 17,0 6,9 11,3 5 3 9 5 W 1026,4 57 60 0,0
22.11.2020 12:00:00 11,0 -4,7 14,2 6,9 11,3 4 2 7 4 ESE 1027,3 56 60 0,0
22.11.2020 11:00:00 8,6 -1,5 6,9 7,0 11,3 0 0 8 4 N 1028,6 60 60 0,0
22.11.2020 10:00:00 3,6 -3,9 0,2 7,0 11,3 3 2 7 4 E 1030,1 58 60 0,0
22.11.2020 09:00:00 0,1 -3,8 -5,0 7,1 11,3 5 3 8 4 E 1031,0 45 38 0,0
22.11.2020 08:00:00 -2,2 -5,4 -5,5 7,2 11,3 7 4 10 5 E 1031,5 58 0 0,0
22.11.2020 07:00:00 -1,5 -6,8 -5,8 7,2 11,3 6 3 8 4 ESE 1031,2 60 0 0,0
22.11.2020 06:00:00 -2,6 -5,4 -5,5 7,3 11,3 6 4 10 6 E 1031,5 56 0 0,0
22.11.2020 05:00:00 -1,9 -5,9 -5,4 7,4 11,3 5 3 8 5 E 1031,4 60 0 0,0
22.11.2020 04:00:00 -1,8 -6,4 -5,5 7,4 11,3 7 4 10 6 SE 1031,1 60 0 0,0
22.11.2020 03:00:00 -0,6 -6,4 -5,2 7,5 11,3 8 4 15 8 E 1031,0 60 0 0,0
22.11.2020 02:00:00 -1,4 -5,4 -4,9 7,5 11,3 6 3 8 4 E 1031,4 45 0 0,0
22.11.2020 01:00:00 -0,1 -4,5 -3,4 7,6 11,3 8 4 16 9 E 1031,4 36 0 0,0
22.11.2020 00:00:00 0,2 -3,7 -3,0 7,6 11,4 8 4 18 10 E 1031,6 30 0 0,0
21.11.2020 23:00:00 1,0 -2,9 -3,0 7,7 11,3 15 8 19 10 E 1031,8 29 0 0,0
21.11.2020 22:00:00 -0,9 -2,6 -3,6 7,7 11,4 10 6 14 8 E 1032,6 22 0 0,0
21.11.2020 21:00:00 -0,2 -3,2 -3,7 7,7 11,4 5 3 9 5 E 1032,6 35 0 0,0
21.11.2020 20:00:00 1,8 -1,1 -3,2 7,7 11,3 5 3 11 6 E 1031,9 32 0 0,0
21.11.2020 19:00:00 2,3 -1,0 -2,2 7,7 11,4 7 4 11 6 E 1031,9 53 0 0,0
21.11.2020 18:00:00 4,5 -1,9 -1,8 7,7 11,4 4 2 6 3 SSW 1031,2 20 0 0,0
21.11.2020 17:00:00 8,8 -1,6 3,9 7,7 11,4 5 3 16 9 WNW 1029,7 20 51 0,0
21.11.2020 16:00:00 10,0 -0,2 8,4 7,7 11,4 9 5 16 9 NW 1029,1 60 60 0,0
21.11.2020 15:00:00 10,5 -0,6 9,5 7,7 11,4 9 5 19 11 NNW 1029,1 54 60 0,0
21.11.2020 14:00:00 11,8 -4,0 15,0 7,7 11,4 5 3 12 6 S 1029,0 18 60 0,0
21.11.2020 13:00:00 9,5 -1,9 12,4 7,8 11,4 7 4 12 6 SE 1030,3 60 60 0,0
21.11.2020 12:00:00 6,6 -0,9 8,6 7,9 11,4 4 2 9 5 SE 1032,3 48 60 0,0
21.11.2020 11:00:00 3,8 -1,4 3,3 7,9 11,3 4 2 7 4 NNW 1033,6 40 60 0,0
21.11.2020 10:00:00 0,3 -2,3 -3,1 8,0 11,4 4 2 8 5 SE 1034,1 20 60 0,0
21.11.2020 09:00:00 -3,0 -4,0 -8,2 8,1 11,4 6 3 10 5 E 1034,9 20 39 0,0
21.11.2020 08:00:00 -4,9 -5,6 -8,2 8,3 11,4 6 3 10 5 ESE 1035,1 16 0 0,0
21.11.2020 07:00:00 -5,1 -5,8 -8,4 8,4 11,4 7 4 13 7 E 1034,9 30 0 0,0
21.11.2020 06:00:00 -4,3 -5,0 -8,0 8,5 11,4 5 3 7 4 NW 1034,3 19 0 0,0
21.11.2020 05:00:00 -4,3 -5,0 -7,6 8,6 11,4 3 2 9 5 ESE 1034,3 30 0 0,0
21.11.2020 04:00:00 -4,3 -5,0 -7,0 8,7 11,4 6 4 8 5 E 1034,7 14 0 0,0
21.11.2020 03:00:00 -3,8 -4,5 -6,9 8,8 11,5 3 2 6 4 W 1035,6 16 0 0,0
21.11.2020 02:00:00 -3,2 -3,9 -6,5 8,9 11,4 3 1 10 5 ENE 1035,7 16 0 0,0
21.11.2020 01:00:00 -2,8 -3,6 -5,7 8,9 11,4 6 4 9 5 E 1036,3 20 0 0,0
21.11.2020 00:00:00 -2,5 -3,5 -5,3 9,0 11,4 4 2 11 6 SE 1036,3 17 0 0,0
20.11.2020 23:00:00 -2,3 -3,3 -4,8 9,1 11,4 5 3 9 5 E 1036,3 18 0 0,0
20.11.2020 22:00:00 -2,0 -3,4 -4,7 9,1 11,4 5 3 10 5 E 1036,1 33 0 0,0
20.11.2020 21:00:00 -1,2 -2,9 -4,4 9,1 11,4 4 2 7 4 S 1035,7 52 0 0,0
20.11.2020 20:00:00 0,3 -3,3 -3,2 9,2 11,4 4 2 15 8 WNW 1035,0 20 0 0,0
20.11.2020 19:00:00 2,9 -2,0 -1,4 9,2 11,4 9 5 15 8 NW 1034,7 60 0 0,0
20.11.2020 18:00:00 3,4 -1,8 0,7 9,2 11,4 10 5 23 12 NNW 1034,5 60 0 0,0
20.11.2020 17:00:00 5,2 -1,1 2,8 9,2 11,5 15 8 24 13 N 1034,1 60 44 0,0
20.11.2020 16:00:00 6,3 0,2 5,1 9,1 11,4 16 9 31 17 NNW 1033,5 60 24 0,0
20.11.2020 15:00:00 6,8 1,9 7,8 9,1 11,4 16 9 32 18 NNW 1033,2 60 50 0,0
20.11.2020 14:00:00 7,1 2,6 10,0 9,2 11,4 20 11 41 22 NNW 1033,4 34 57 0,0
20.11.2020 13:00:00 7,4 2,3 9,9 9,2 11,5 22 12 38 20 N 1033,5 31 60 0,0
20.11.2020 12:00:00 6,6 2,9 7,3 9,2 11,5 19 10 37 20 NNW 1034,2 19 56 0,0
20.11.2020 11:00:00 5,6 2,8 4,2 9,3 11,5 20 11 36 20 NNW 1034,4 39 25 0,0
20.11.2020 10:00:00 3,9 1,9 4,2 9,3 11,4 18 10 31 17 NW 1035,0 45 30 0,0
20.11.2020 09:00:00 4,2 2,4 2,6 9,4 11,5 16 9 27 15 WNW 1035,1 25 41 0,0
20.11.2020 08:00:00 2,8 1,8 1,0 9,5 11,5 10 6 19 10 WNW 1035,5 20 0 0,0
20.11.2020 07:00:00 2,0 1,0 -0,2 9,5 11,5 7 4 15 8 W 1035,7 20 0 0,0
20.11.2020 06:00:00 1,9 0,6 -0,4 9,6 11,5 4 2 18 10 WNW 1035,6 23 0 0,0
20.11.2020 05:00:00 2,5 1,0 0,6 9,6 11,5 8 5 18 10 NW 1035,5 30 0 0,0
20.11.2020 04:00:00 2,7 1,1 1,1 9,7 11,5 8 4 23 13 NW 1035,6 20 0 0,0
20.11.2020 03:00:00 3,6 1,6 2,8 9,7 11,5 11 6 23 12 NW 1035,8 34 0 0,0
20.11.2020 02:00:00 3,5 1,9 0,5 9,8 11,5 10 6 20 11 NW 1036,2 20 0 0,0
20.11.2020 01:00:00 3,1 1,5 1,3 9,8 11,5 10 5 18 10 NNW 1036,4 20 0 0,0
20.11.2020 00:00:00 3,4 1,6 1,8 9,9 11,5 8 4 16 9 NW 1036,2 37 0 0,0

tt = Température de l'air
td = dewpoint
tt 5cm = Température de l'air 5cm
tt -20cm = Température de l'air -20cm
tt -100cm = Température de l'air -100cm
ff = Vitesse du vent
fx = gusts
dd = Direction du vent
ppp = reduced air pressure
vv = visibility
sd = Ensoleillement
rr = Quantités de précipitations

stations d'obs. à proximité